Tracking 22881 objects as of 19-Apr-2021
HD Live streaming from Space Station
objects crossing your sky now

STARLINK-1408

Track STARLINK-1408 now!
10-day predictions
STARLINK-1408 is classified as:


NORAD ID: 45688
Int'l Code: 2020-035AH
Perigee: 552.9 km
Apogee: 555.8 km
Inclination: 53.1 °
Period: 95.6 minutes
Semi major axis: 6925 km
RCS: Unknown
Launch date: June 4, 2020
Source: United States (US)
Launch site: AIR FORCE EASTERN TEST RANGE (AFETR)
aabbcc
Your satellite tracking list
Your tracking list is empty




NASA's NSSDC Master Catalog

Two Line Element Set (TLE):
1 45688U 20035AH  21108.60289761  .00001250  00000-0  10280-3 0  9994
2 45688  53.0573 154.6632 0002070 150.7441 209.3664 15.06396888 49663
Source of the keplerian elements: AFSPC